This is the latest recevied weather packets stored in our database for station/object VE3MJM-WX. If no packets are shown the sender has not sent any weather packets the latest 10 day(s).
| Time | Temp. | Humidity | Pressure | Rain* | Wind** | Luminosity | Snow |
|---|---|---|---|---|---|---|---|
| 1777305141 | 15.56° C | 59% | 1015 hPa | 0 mm | - | - | - |
| 1777304239 | 15° C | 63% | 1015.6 hPa | 0 mm | - | - | - |
| 1777303336 | 14.44° C | 64% | 1016 hPa | 0 mm | - | - | - |
| 1777302494 | 13.89° C | 62% | 1015.8 hPa | 0 mm | - | - | - |
| 1777301591 | 14.44° C | 62% | 1016.3 hPa | 0 mm | - | - | - |
| 1777300689 | 13.89° C | 60% | 1016.6 hPa | 0 mm | - | - | - |
| 1777299786 | 13.33° C | 66% | 1016.6 hPa | 0 mm | - | - | - |
| 1777298884 | 12.78° C | 67% | 1016.7 hPa | 0 mm | - | - | - |
| 1777297981 | 12.78° C | 68% | 1016.5 hPa | 0 mm | - | - | - |
| 1777297078 | 12.22° C | 68% | 1016.8 hPa | 0 mm | - | - | - |
| 1777296146 | 11.67° C | 67% | 1016.6 hPa | 0 mm | - | - | - |
| 1777295243 | 11.11° C | 66% | 1016.6 hPa | 0 mm | - | - | - |
| 1777294341 | 10° C | 67% | 1016.7 hPa | 0 mm | - | - | - |
| 1777293438 | 10° C | 65% | 1016.9 hPa | 0 mm | - | - | - |
| 1777292536 | 8.89° C | 64% | 1017 hPa | 0 mm | - | - | - |
| 1777291633 | 8.89° C | 64% | 1017.3 hPa | 0 mm | - | - | - |
| 1777290731 | 7.22° C | 67% | 1017.3 hPa | 0 mm | - | - | - |
| 1777289828 | 7.78° C | 66% | 1017.1 hPa | 0 mm | - | - | - |
| 1777288925 | 7.78° C | 66% | 1017.4 hPa | 0 mm | - | - | - |
| 1777288023 | 6.67° C | 66% | 1017.5 hPa | 0 mm | - | - | - |
| 1777287120 | 6.11° C | 67% | 1017.3 hPa | 0 mm | - | - | - |
| 1777286218 | 5° C | 70% | 1017.2 hPa | 0 mm | - | - | - |
| 1777285315 | 5.56° C | 69% | 1017 hPa | 0 mm | - | - | - |
| 1777284413 | 5.56° C | 68% | 1016.9 hPa | 0 mm | - | - | - |
| 1777283510 | 5° C | 69% | 1017.2 hPa | 0 mm | - | - | - |
* Rain latest hour (hover to see other rain measurements)
** Current wind speed in m/s (hover to see current wind gust speed)